Charleston, SC

2:33 AM EDT on June 28, 2017 (GMT -0400)
Charleston Executive

Weather History for KJZI - May, 2013

Change the Weather History Date:

Thursday, May 2, 2013

  Actual Average (KCHS) Record (KCHS)
Temperature  
Mean Temperature 68 °F -  
Max Temperature 73 °F 80 °F 95 °F (1990)
Min Temperature 62 °F 58 °F 36 °F (1963)
Cooling Degree Days 2    
Growing Degree Days 18 (Base 50)    
Moisture  
Dew Point 62 °F    
Average Humidity 83    
Maximum Humidity 94    
Minimum Humidity 69    
Precipitation  
Precipitation 0.45 in - - ()
Sea Level Pressure  
Sea Level Pressure 30.14 in    
Wind  
Wind Speed 16 mph (NE)    
Max Wind Speed 26 mph    
Max Gust Speed 33 mph    
Visibility 8 miles    
Events      
Averages and records for this station are not official NWS values.
T = Trace of Precipitation, MM = Missing Value Source: NWS Daily Summary

Daily Weather History Graph

Daily Weather History Graph

Search for Another Location

Airport or City:

Trip Planner

Search our weather history database for the weather conditions in past years. The results will help you decide how hot, cold, wet, or windy it might be!

Date:

Astronomy

May. 02, 2013 Rise Set
Actual Time 6:31 AM EDT 8:02 PM EDT
Civil Twilight 6:05 AM EDT 8:28 PM EDT
Nautical Twilight 5:34 AM EDT 9:00 PM EDT
Astronomical Twilight 5:01 AM EDT 9:33 PM EDT
Moon 1:53 AM EDT (5/2) 1:13 PM EDT (5/2)
Length of Visible Light 14h 23m
Length of Day
13h 30m
Waning Gibbous, 48% of the Moon is Illuminated
May 2
Waning Gibbous
May 9
New
May 18
First Quarter
May 25
Full
May 31
Last Quarter

Hourly Weather History & Observations

Time (EDT) Temp. Dew Point Humidity Pressure Visibility Wind Dir Wind Speed Gust Speed Precip Events Conditions
12:15 AM 66.2 °F 62.6 °F 88% 30.15 in 10.0 mi NNE 8.1 mph - 0.00 in   Overcast
12:35 AM 66.2 °F 62.6 °F 88% 30.15 in 10.0 mi NE 11.5 mph - 0.00 in   Overcast
12:55 AM 66.2 °F 62.6 °F 88% 30.15 in 10.0 mi NE 12.7 mph 17.3 mph 0.00 in   Overcast
1:15 AM 66.2 °F 62.6 °F 88% 30.14 in 10.0 mi NE 11.5 mph - 0.00 in   Scattered Clouds
1:35 AM 66.2 °F 62.6 °F 88% 30.14 in 10.0 mi NE 12.7 mph - 0.00 in   Partly Cloudy
1:55 AM 66.2 °F 62.6 °F 88% 30.13 in 10.0 mi NE 15.0 mph 18.4 mph 0.00 in   Partly Cloudy
2:15 AM 66.2 °F 62.6 °F 88% 30.12 in 10.0 mi NE 15.0 mph 20.7 mph 0.00 in   Partly Cloudy
2:35 AM 66.2 °F 62.6 °F 88% 30.12 in 10.0 mi NE 15.0 mph 19.6 mph 0.00 in   Partly Cloudy
3:15 AM 66.2 °F 62.6 °F 88% 30.12 in 9.0 mi NE 15.0 mph 18.4 mph 0.00 in   Clear
3:35 AM 66.2 °F 62.6 °F 88% 30.12 in 9.0 mi NE 13.8 mph - 0.00 in   Clear
3:55 AM 66.2 °F 62.6 °F 88% 30.12 in 8.0 mi NE 13.8 mph 20.7 mph 0.00 in   Clear
4:15 AM 66.2 °F 62.6 °F 88% 30.12 in 8.0 mi NE 13.8 mph 20.7 mph 0.00 in   Clear
4:35 AM 66.2 °F 62.6 °F 88% 30.12 in 7.0 mi NE 13.8 mph - 0.00 in   Clear
4:55 AM 66.2 °F 62.6 °F 88% 30.12 in 7.0 mi NE 15.0 mph - 0.00 in   Scattered Clouds
5:15 AM 66.2 °F 62.6 °F 88% 30.11 in 7.0 mi NE 16.1 mph 21.9 mph 0.00 in   Mostly Cloudy
5:35 AM 66.2 °F 62.6 °F 88% 30.11 in 7.0 mi NE 15.0 mph 24.2 mph 0.00 in   Mostly Cloudy
5:55 AM 66.2 °F 62.6 °F 88% 30.12 in 7.0 mi NE 16.1 mph 23.0 mph 0.00 in   Overcast
6:15 AM 66.2 °F 62.6 °F 88% 30.13 in 7.0 mi NE 16.1 mph 21.9 mph 0.00 in   Overcast
6:35 AM 66.2 °F 62.6 °F 88% 30.13 in 7.0 mi NE 16.1 mph 20.7 mph 0.00 in   Overcast
6:55 AM 66.2 °F 62.6 °F 88% 30.14 in 6.0 mi NE 16.1 mph 24.2 mph 0.00 in   Overcast
7:15 AM 66.2 °F 62.6 °F 88% 30.14 in 7.0 mi NE 15.0 mph 21.9 mph 0.00 in   Overcast
7:35 AM 66.2 °F 62.6 °F 88% 30.13 in 7.0 mi NE 16.1 mph 21.9 mph 0.00 in   Overcast
7:55 AM 66.2 °F 62.6 °F 88% 30.14 in 7.0 mi NE 19.6 mph 24.2 mph 0.00 in   Overcast
8:15 AM 66.2 °F 62.6 °F 88% 30.15 in 6.0 mi NE 13.8 mph 21.9 mph 0.00 in   Overcast
8:35 AM 66.2 °F 62.6 °F 88% 30.16 in 4.0 mi NE 17.3 mph 23.0 mph 0.00 in   Overcast
8:55 AM 68.0 °F 62.6 °F 83% 30.16 in 7.0 mi NE 12.7 mph 20.7 mph 0.00 in   Mostly Cloudy
9:15 AM 68.0 °F 62.6 °F 83% 30.16 in 7.0 mi NE 17.3 mph 26.5 mph 0.00 in   Mostly Cloudy
9:35 AM 68.0 °F 62.6 °F 83% 30.16 in 7.0 mi NE 17.3 mph 24.2 mph 0.00 in   Scattered Clouds
9:55 AM 68.0 °F 62.6 °F 83% 30.16 in 7.0 mi NE 17.3 mph 26.5 mph 0.00 in   Mostly Cloudy
10:15 AM 69.8 °F 62.6 °F 78% 30.16 in 8.0 mi NE 20.7 mph 27.6 mph 0.00 in   Overcast
10:35 AM 69.8 °F 62.6 °F 78% 30.17 in 9.0 mi NE 20.7 mph 29.9 mph 0.00 in   Overcast
10:55 AM 69.8 °F 62.6 °F 78% 30.17 in 8.0 mi ENE 18.4 mph 31.1 mph 0.00 in   Overcast
11:15 AM 69.8 °F 62.6 °F 78% 30.17 in 10.0 mi NE 18.4 mph 28.8 mph 0.00 in   Overcast
11:35 AM 69.8 °F 62.6 °F 78% 30.17 in 9.0 mi NE 23.0 mph 28.8 mph 0.00 in   Overcast
11:55 AM 69.8 °F 62.6 °F 78% 30.16 in 10.0 mi NE 23.0 mph 27.6 mph 0.00 in   Overcast
12:15 PM 69.8 °F 62.6 °F 78% 30.16 in 10.0 mi NE 19.6 mph 28.8 mph 0.00 in   Overcast
12:35 PM 71.6 °F 62.6 °F 73% 30.16 in 10.0 mi NE 24.2 mph 31.1 mph 0.00 in   Overcast
12:55 PM 69.8 °F 62.6 °F 78% 30.16 in 10.0 mi NE 25.3 mph 28.8 mph 0.00 in   Overcast
1:15 PM 69.8 °F 62.6 °F 78% 30.16 in 8.0 mi NE 23.0 mph 29.9 mph 0.00 in   Overcast
1:35 PM 73.4 °F 62.6 °F 69% 30.16 in 8.0 mi ENE 18.4 mph 27.6 mph 0.00 in   Mostly Cloudy
1:55 PM 71.6 °F 62.6 °F 73% 30.15 in 8.0 mi NE 19.6 mph 31.1 mph 0.00 in   Mostly Cloudy
2:15 PM 71.6 °F 62.6 °F 73% 30.15 in 8.0 mi NE 19.6 mph 26.5 mph 0.00 in   Mostly Cloudy
2:35 PM 71.6 °F 62.6 °F 73% 30.15 in 8.0 mi NE 24.2 mph 28.8 mph 0.00 in   Overcast
2:55 PM 71.6 °F 62.6 °F 73% 30.14 in 9.0 mi NE 25.3 mph 32.2 mph 0.00 in   Mostly Cloudy
3:15 PM 71.6 °F 62.6 °F 73% 30.13 in 9.0 mi NE 20.7 mph 33.4 mph 0.00 in   Partly Cloudy
3:35 PM 71.6 °F 62.6 °F 73% 30.12 in 9.0 mi NE 23.0 mph 31.1 mph 0.00 in   Scattered Clouds
3:55 PM 71.6 °F 62.6 °F 73% 30.12 in 9.0 mi ENE 20.7 mph 31.1 mph 0.00 in   Partly Cloudy
4:15 PM 71.6 °F 62.6 °F 73% 30.12 in 9.0 mi NE 23.0 mph 27.6 mph 0.00 in   Partly Cloudy
4:35 PM 73.4 °F 62.6 °F 69% 30.12 in 9.0 mi NE 19.6 mph 28.8 mph 0.00 in   Scattered Clouds
4:55 PM - - N/A% 30.11 in - NE 24.2 mph 28.8 mph 0.00 in   Unknown
5:15 PM 71.6 °F 62.6 °F 73% 30.12 in 9.0 mi NE 19.6 mph 29.9 mph 0.00 in   Scattered Clouds
5:35 PM 69.8 °F 62.6 °F 78% 30.12 in 9.0 mi ENE 23.0 mph 29.9 mph 0.00 in   Scattered Clouds
5:55 PM 69.8 °F 62.6 °F 78% 30.11 in 8.0 mi NE 26.5 mph 32.2 mph 0.00 in   Scattered Clouds
6:15 PM 68.0 °F 62.6 °F 83% 30.12 in 7.0 mi NE 20.7 mph 33.4 mph 0.00 in   Mostly Cloudy
6:35 PM 66.2 °F 62.6 °F 88% 30.12 in 7.0 mi NE 19.6 mph 29.9 mph 0.00 in   Mostly Cloudy
6:55 PM 66.2 °F 62.6 °F 88% 30.11 in 7.0 mi ENE 20.7 mph 26.5 mph 0.00 in   Overcast
7:15 PM 66.2 °F 60.8 °F 83% 30.11 in 7.0 mi NE 24.2 mph 32.2 mph 0.00 in   Overcast
7:35 PM 66.2 °F 60.8 °F 83% 30.12 in 7.0 mi ENE 18.4 mph 28.8 mph 0.00 in   Overcast
7:55 PM 66.2 °F 60.8 °F 83% 30.12 in 7.0 mi NE 20.7 mph 27.6 mph 0.00 in   Mostly Cloudy
8:15 PM 66.2 °F 62.6 °F 88% 30.13 in 8.0 mi NE 16.1 mph 24.2 mph 0.00 in   Mostly Cloudy
8:35 PM 66.2 °F 62.6 °F 88% 30.13 in 7.0 mi NE 19.6 mph 26.5 mph 0.00 in   Overcast
8:55 PM 64.4 °F 62.6 °F 94% 30.14 in 1.5 mi NE 17.3 mph 28.8 mph 0.00 in   Overcast
9:15 PM 64.4 °F 62.6 °F 94% 30.13 in 5.0 mi NE 15.0 mph 19.6 mph 0.00 in   Mostly Cloudy
9:35 PM 64.4 °F 60.8 °F 88% 30.13 in 9.0 mi NE 13.8 mph 23.0 mph 0.00 in   Overcast
9:55 PM 64.4 °F 60.8 °F 88% 30.14 in 9.0 mi ENE 16.1 mph 23.0 mph 0.00 in   Overcast
10:15 PM 64.4 °F 59.0 °F 83% 30.14 in 2.0 mi NE 19.6 mph 25.3 mph 0.01 in   Haze
10:35 PM 62.6 °F 60.8 °F 94% 30.14 in 2.0 mi NE 13.8 mph 18.4 mph 0.02 in   Overcast
10:55 PM 64.4 °F 60.8 °F 88% 30.13 in 6.0 mi NE 17.3 mph 21.9 mph 0.03 in   Overcast
11:15 PM 64.4 °F 60.8 °F 88% 30.13 in 9.0 mi NE 18.4 mph 25.3 mph 0.42 in   Overcast
11:35 PM 64.4 °F 60.8 °F 88% 30.12 in 8.0 mi NE 12.7 mph - 0.42 in   Mostly Cloudy
11:55 PM 64.4 °F 59.0 °F 83% 30.12 in 8.0 mi NE 13.8 mph 19.6 mph 0.42 in   Mostly Cloudy